EW1714 Weather Reports


Display with metric or nautical units.
time (UTC)temp
F
wind
direction
speed
MPH
gust
MPH
rain 1hr
in
rain 24hr
in
rain mn
in
humidity
%
barometer
mb
20260503021508 47 329 0.0 0.0 0.00 0.16 0.16 92 1011.4
20260503021003 47 329 0.0 0.0 0.00 0.16 0.16 92 1011.4
20260503020503 48 329 0.0 0.0 0.00 0.16 0.16 92 1011.4
20260503020010 48 329 0.0 0.0 0.00 0.16 0.16 93 1011.4
20260503015503 48 329 0.0 0.0 0.00 0.16 0.16 93 1011.4
20260503015003 48 329 0.0 0.0 0.00 0.16 0.16 93 1011.4
20260503014514 48 329 0.0 0.0 0.00 0.16 0.16 93 1011.4
20260503014006 48 329 0.0 0.0 0.00 0.16 0.16 93 1011.3
20260503013505 48 329 0.0 0.0 0.00 0.16 0.16 93 1011.3
20260503013020 49 329 0.0 0.0 0.00 0.16 0.16 93 1011.2
20260503012506 49 329 0.0 0.0 0.00 0.16 0.16 93 1011.3
20260503012009 49 329 0.0 0.0 0.00 0.16 0.16 93 1011.2
20260503011523 49 329 0.0 0.0 0.00 0.16 0.16 93 1011.2
20260503011003 49 329 0.0 0.0 0.00 0.16 0.16 93 1011.1
20260503010503 49 329 0.0 0.0 0.00 0.16 0.16 93 1011.2
20260503010005 49 329 0.0 0.0 0.00 0.16 0.16 93 1011.1
20260503005503 49 329 0.0 0.0 0.00 0.16 0.16 93 1011.0
20260503005002 49 329 0.0 0.0 0.00 0.16 0.16 93 1011.1
20260503004536 49 329 0.0 0.0 0.00 0.16 0.16 92 1011.1
20260503004006 49 329 0.0 0.0 0.00 0.16 0.16 92 1011.0
20260503003506 49 6 0.0 0.0 0.00 0.16 0.16 92 1010.8
20260503003018 50 6 0.0 0.0 0.00 0.16 0.16 92 1010.9
20260503002506 50 6 0.0 0.0 0.00 0.16 0.16 92 1011.0
20260503002007 50 6 0.0 0.0 0.00 0.16 0.16 92 1011.0
20260503001522 50 6 0.0 0.0 0.00 0.16 0.16 92 1010.9
20260503001005 50 6 0.0 0.0 0.00 0.16 0.16 92 1011.0
20260503000510 50 6 0.0 2.0 0.00 0.16 0.16 93 1011.0
20260503000026 50 6 0.0 2.0 0.00 0.16 0.16 93 1011.0
20260502235503 50 355 0.0 0.0 0.00 0.16 0.16 93 1011.0
20260502235003 50 355 0.0 0.0 0.00 0.16 0.16 93 1010.9
20260502234512 50 292 0.0 0.0 0.00 0.16 0.16 93 1010.9
20260502234006 51 291 0.0 0.0 0.00 0.16 0.16 93 1010.9
20260502233503 51 291 0.0 0.0 0.00 0.16 0.16 93 1010.8
20260502233015 51 291 0.0 0.0 0.00 0.16 0.16 93 1010.9
20260502232506 51 278 0.0 1.0 0.00 0.16 0.16 93 1010.8
20260502232006 51 232 0.0 1.0 0.00 0.16 0.16 93 1010.8
20260502231521 51 288 0.0 0.0 0.00 0.16 0.16 93 1010.8
20260502231007 51 288 0.0 0.0 0.00 0.16 0.16 93 1010.7
20260502230509 51 288 0.0 0.0 0.00 0.16 0.16 93 1010.7
20260502230029 51 288 0.0 0.0 0.00 0.16 0.16 93 1010.7
20260502225507 51 293 0.0 0.0 0.00 0.16 0.16 93 1010.6
20260502225012 51 321 0.0 0.0 0.00 0.16 0.16 93 1010.3
20260502224527 51 321 0.0 0.0 0.01 0.16 0.16 93 1010.3
20260502224010 50 321 0.0 0.0 0.01 0.16 0.16 93 1010.2
20260502223504 50 321 0.0 0.0 0.01 0.16 0.16 93 1010.2
20260502223010 50 321 0.0 0.0 0.01 0.16 0.16 92 1010.2
20260502222503 51 321 0.0 0.0 0.01 0.16 0.16 92 1010.2
20260502222005 51 321 0.0 0.0 0.01 0.16 0.16 92 1010.2
20260502221517 51 321 0.0 0.0 0.02 0.16 0.16 92 1010.3
20260502221006 51 321 0.0 0.0 0.02 0.16 0.16 93 1010.3
20260502220507 51 321 0.0 0.0 0.03 0.16 0.16 93 1010.3
20260502220022 51 321 0.0 0.0 0.04 0.16 0.16 93 1010.2
20260502215507 51 321 0.0 0.0 0.04 0.16 0.16 93 1010.3
20260502215008 51 321 0.0 0.0 0.05 0.16 0.16 92 1010.4
20260502214525 51 321 0.0 0.0 0.04 0.15 0.15 92 1010.5
20260502214010 51 321 0.0 0.0 0.05 0.15 0.15 92 1010.5
20260502213511 51 321 0.0 0.0 0.05 0.15 0.15 92 1010.5
20260502213026 51 321 0.0 0.0 0.05 0.15 0.15 91 1010.6
20260502212514 51 321 0.0 0.0 0.05 0.15 0.15 91 1010.6
20260502212010 51 321 0.0 0.0 0.05 0.15 0.15 91 1010.6
20260502211514 51 321 0.0 0.0 0.05 0.14 0.14 90 1010.6
20260502211005 51 322 0.0 0.0 0.05 0.14 0.14 90 1010.6
20260502210506 51 322 0.0 0.0 0.04 0.13 0.13 90 1010.4
20260502210017 51 322 0.0 0.0 0.03 0.12 0.12 89 1010.4
20260502205510 52 322 0.0 0.0 0.03 0.12 0.12 89 1010.4
20260502205007 52 322 0.0 0.0 0.02 0.11 0.11 89 1010.4
20260502204527 52 322 0.0 0.0 0.02 0.11 0.11 88 1010.5
20260502204013 52 322 0.0 0.0 0.01 0.10 0.10 86 1010.5
20260502203507 52 322 0.0 0.0 0.01 0.10 0.10 87 1010.4
20260502203024 52 322 0.0 0.0 0.01 0.10 0.10 86 1010.4
20260502202512 53 321 0.0 0.0 0.01 0.10 0.10 85 1010.4
20260502202010 53 321 0.0 0.0 0.01 0.10 0.10 84 1010.4
20260502201533 53 321 0.0 0.0 0.00 0.09 0.09 83 1010.5
20260502201008 53 321 0.0 0.0 0.00 0.09 0.09 84 1010.6
20260502200507 53 321 0.0 0.0 0.00 0.09 0.09 83 1010.7
20260502200014 53 321 0.0 0.0 0.00 0.09 0.09 81 1010.7
20260502195504 53 321 0.0 0.0 0.00 0.09 0.09 80 1010.7
20260502195007 53 321 0.0 0.0 0.00 0.09 0.09 80 1010.7
20260502194518 53 321 0.0 0.0 0.00 0.09 0.09 80 1010.7
20260502194007 53 321 0.0 0.0 0.00 0.09 0.09 80 1010.8
20260502193511 53 321 0.0 0.0 0.00 0.09 0.09 78 1010.8
20260502193024 54 309 0.0 0.0 0.00 0.09 0.09 78 1010.9
20260502192508 54 309 0.0 0.0 0.00 0.09 0.09 78 1010.9
20260502192008 54 309 0.0 5.0 0.00 0.09 0.09 78 1010.9
20260502191527 55 340 0.0 5.0 0.00 0.09 0.09 77 1010.9
20260502191008 55 352 0.0 1.0 0.00 0.09 0.09 75 1010.9
20260502190509 56 321 0.0 3.0 0.00 0.09 0.09 75 1010.9
20260502190034 56 307 0.0 5.0 0.00 0.09 0.09 72 1010.9
20260502185507 57 2 0.0 5.0 0.00 0.09 0.09 70 1010.8
20260502185010 57 256 0.0 4.0 0.00 0.09 0.09 69 1010.8
20260502184537 58 319 0.0 6.0 0.00 0.09 0.09 67 1011.0
20260502184006 58 228 0.0 6.0 0.00 0.09 0.09 65 1010.9
20260502183508 59 207 2.0 12.0 0.00 0.09 0.09 62 1010.8
20260502183029 59 143 1.0 12.0 0.00 0.09 0.09 61 1010.7
20260502182506 59 248 1.0 9.0 0.00 0.09 0.09 62 1010.8
20260502182009 58 193 1.0 9.0 0.00 0.09 0.09 62 1010.8
20260502181533 58 105 0.0 10.0 0.00 0.09 0.09 63 1010.9
20260502181007 58 209 1.0 10.0 0.00 0.09 0.09 62 1010.9
20260502180508 59 195 2.0 9.0 0.00 0.09 0.09 62 1010.9
20260502170503 55 4 0.0 4.0 0.00 0.09 0.09 81 1011.2
20260502164004 53 232 0.0 5.0 0.00 0.09 0.09 79 1011.5
20260502163504 53 306 0.0 5.0 0.00 0.09 0.09 79 1011.5
20260502163011 53 160 0.0 1.0 0.00 0.09 0.09 79 1011.8
20260502162503 53 134 0.0 2.0 0.00 0.09 0.09 79 1012.0
20260502162005 54 208 0.0 2.0 0.00 0.09 0.09 78 1012.0
20260502161510 54 174 0.0 3.0 0.00 0.09 0.09 78 1012.0
20260502161003 54 185 0.0 3.0 0.00 0.09 0.09 76 1012.0
20260502160503 54 174 0.0 0.0 0.00 0.09 0.09 76 1012.1
20260502152003 53 359 0.0 0.0 0.00 0.09 0.09 82 1012.1
20260502151514 53 358 0.0 1.0 0.00 0.09 0.09 86 1012.1
20260502151005 52 359 0.0 1.0 0.00 0.09 0.09 84 1012.1
20260502150505 52 39 0.0 1.0 0.00 0.09 0.09 85 1012.1
20260502130503 47 5 0.0 0.0 0.02 0.09 0.09 93 1012.8
20260502123508 47 8 0.0 0.0 0.05 0.08 0.08 92 1013.3
20260502123025 47 8 0.0 0.0 0.05 0.08 0.08 92 1013.4
20260502122508 47 344 0.0 0.0 0.05 0.07 0.07 92 1013.3
20260502122006 47 344 0.0 0.0 0.06 0.07 0.07 92 1013.3
20260502121520 47 344 0.0 0.0 0.06 0.07 0.07 92 1013.2
20260502121007 47 344 0.0 0.0 0.06 0.07 0.07 92 1013.2
20260502120507 47 344 0.0 0.0 0.06 0.07 0.07 92 1013.1
20260502115507 47 344 0.0 0.0 0.06 0.07 0.07 91 1013.2
20260502115004 46 344 0.0 0.0 0.06 0.07 0.07 91 1013.4
20260502114520 46 344 0.0 0.0 0.05 0.06 0.06 90 1013.5
20260502114007 46 344 0.0 0.0 0.04 0.05 0.05 89 1013.5
20260502113512 47 328 0.0 0.0 0.02 0.03 0.03 89 1013.5
20260502113020 47 328 0.0 0.0 0.02 0.03 0.03 89 1013.4
20260502112506 47 322 0.0 0.0 0.01 0.02 0.02 88 1013.3
20260502112007 47 322 0.0 0.0 0.00 0.01 0.01 89 1012.9
20260502111521 47 22 0.0 0.0 0.00 0.01 0.01 89 1012.8
20260502111007 46 22 0.0 0.0 0.00 0.01 0.01 89 1012.4
20260502110507 46 22 0.0 0.0 0.00 0.01 0.01 88 1012.1
20260502110013 46 22 0.0 0.0 0.00 0.01 0.01 89 1012.1
20260502105507 46 22 0.0 0.0 0.00 0.01 0.01 89 1012.0
20260502105003 46 22 0.0 0.0 0.00 0.01 0.01 89 1011.7
20260502104516 46 22 0.0 0.0 0.01 0.01 0.01 89 1011.8
20260502104004 46 22 0.0 0.0 0.01 0.01 0.01 89 1011.8
20260502103504 46 22 0.0 0.0 0.01 0.01 0.01 89 1011.9
20260502103020 46 22 0.0 0.0 0.01 0.01 0.01 88 1012.1
20260502102510 46 22 0.0 0.0 0.01 0.01 0.01 87 1012.0
20260502102008 46 22 0.0 0.0 0.01 0.01 0.01 86 1012.0
20260502101534 46 20 0.0 0.0 0.01 0.01 0.01 87 1012.1
20260502101007 46 20 0.0 0.0 0.01 0.01 0.01 86 1012.0
20260502100511 46 297 0.0 0.0 0.01 0.01 0.01 86 1012.1
20260502091522 47 356 0.0 0.0 0.00 0.00 0.00 84 1011.3
20260502091007 47 356 0.0 0.0 0.00 0.00 0.00 84 1011.3
20260502090508 47 356 0.0 0.0 0.00 0.00 0.00 85 1011.4
20260502071527 47 356 0.0 0.0 0.00 0.00 0.00 75 1011.8
20260502071008 47 356 0.0 0.0 0.00 0.00 0.00 74 1011.7
20260502070508 47 356 0.0 0.0 0.00 0.00 0.00 75 1011.8
20260502070020 47 356 0.0 1.0 0.00 0.00 0.00 75 1011.8
20260502065506 47 356 0.0 4.0 0.00 0.00 0.00 75 1011.8
20260502065009 47 360 0.0 4.0 0.00 0.00 0.00 77 1011.9
20260502064522 47 352 0.0 0.0 0.00 0.00 0.00 76 1012.0
20260502064009 47 352 0.0 0.0 0.00 0.00 0.00 78 1011.9
20260502063506 47 352 0.0 0.0 0.00 0.00 0.00 78 1011.9
20260502063028 47 333 0.0 0.0 0.00 0.00 0.00 79 1011.9
20260502062511 47 348 0.0 0.0 0.00 0.00 0.00 79 1011.8
20260502062009 47 349 0.0 0.0 0.00 0.00 0.00 79 1011.9
20260502061525 47 349 0.0 0.0 0.00 0.00 0.00 78 1011.9
20260502061011 46 349 0.0 0.0 0.00 0.00 0.00 78 1012.0
20260502060508 46 349 0.0 0.0 0.00 0.00 0.00 78 1011.9
20260502060026 46 349 0.0 0.0 0.00 0.00 0.00 78 1011.8
20260502055507 46 349 0.0 0.0 0.00 0.00 0.00 78 1012.0
20260502055011 46 349 0.0 0.0 0.00 0.00 0.00 79 1012.1
20260502054520 46 349 0.0 0.0 0.00 0.00 0.00 78 1012.0
20260502054006 46 349 0.0 0.0 0.00 0.00 0.00 76 1011.9
20260502053502 46 349 0.0 0.0 0.00 0.00 0.00 76 1011.6
20260502053004 46 349 0.0 0.0 0.00 0.00 0.00 76 1011.7
20260502052503 47 349 0.0 0.0 0.00 0.00 0.00 77 1011.7
20260502052003 47 349 0.0 0.0 0.00 0.00 0.00 76 1011.9
20260502051508 47 349 0.0 0.0 0.00 0.00 0.00 76 1011.8
20260502051003 47 349 0.0 0.0 0.00 0.00 0.00 76 1011.7
20260502050503 47 349 0.0 0.0 0.00 0.00 0.00 75 1011.8
20260502050014 47 349 0.0 0.0 0.00 0.00 0.00 73 1011.8
20260502045506 47 349 0.0 0.0 0.00 0.00 0.00 75 1011.8
20260502045004 47 349 0.0 0.0 0.00 0.00 0.00 74 1011.8
20260502044519 47 349 0.0 0.0 0.00 0.00 0.00 75 1012.0
20260502044004 47 349 0.0 0.0 0.00 0.00 0.00 75 1012.0
20260502043502 47 349 0.0 0.0 0.00 0.00 0.00 75 1012.1
20260502043004 47 349 0.0 0.0 0.00 0.00 0.00 75 1012.2
20260502042503 47 319 0.0 0.0 0.00 0.00 0.00 75 1012.1
20260502042002 47 319 0.0 0.0 0.00 0.00 0.00 73 1012.0
20260502041507 47 319 0.0 0.0 0.00 0.00 0.00 73 1012.0
20260502041003 47 319 0.0 0.0 0.00 0.00 0.00 73 1011.9
20260502040503 47 319 0.0 0.0 0.00 0.00 0.00 72 1011.9
20260502040009 47 317 0.0 0.0 0.00 0.00 0.00 73 1012.0
20260502035503 47 280 0.0 0.0 0.00 0.00 0.00 73 1011.9
20260502035003 47 280 0.0 0.0 0.00 0.00 0.00 73 1011.8
20260502034514 47 280 0.0 0.0 0.00 0.00 0.00 74 1011.8
20260502034005 47 280 0.0 0.0 0.00 0.00 0.00 75 1011.8
20260502033508 47 280 0.0 0.0 0.00 0.00 0.00 75 1011.8
20260502033025 47 280 0.0 0.0 0.00 0.00 0.00 75 1011.8
20260502032511 47 280 0.0 0.0 0.00 0.00 0.00 75 1011.7
20260502032002 47 280 0.0 0.0 0.00 0.00 0.00 75 1011.7
20260502031504 47 280 0.0 0.0 0.00 0.00 0.00 73 1011.7
20260502031004 47 280 0.0 0.0 0.00 0.00 0.00 72 1011.7
20260502030502 47 280 0.0 0.0 0.00 0.00 0.00 72 1011.7
20260502030008 47 280 0.0 0.0 0.00 0.00 0.00 72 1011.8
20260502025503 47 280 0.0 0.0 0.00 0.00 0.00 72 1011.8
20260502025003 47 280 0.0 0.0 0.00 0.00 0.00 71 1011.7
20260502024513 47 280 0.0 0.0 0.00 0.00 0.00 71 1011.7
20260502024003 47 280 0.0 0.0 0.00 0.00 0.00 73 1011.8
20260502023507 47 280 0.0 0.0 0.00 0.00 0.00 71 1011.8
20260502023019 47 280 0.0 0.0 0.00 0.00 0.00 71 1011.8
20260502022506 47 280 0.0 0.0 0.00 0.00 0.00 71 1011.7
20260502022007 47 280 0.0 0.0 0.00 0.00 0.00 71 1011.7